Pasco, WA
on Sunday, December 2, 2012

Sunday
Previous Day Next Day
Daily Summary
 ActualAverageRecord
Temperature
Mean Temperature °F 36°F  
Max Temperature 55°F 43°F 57°F (1998)
Min Temperature 44°F 29°F 16°F (2009)
Degree Days
Heating Degree Days 15 29  
Month to date heating degree days 29 58  
Since 1 July heating degree days 1126 1287  
Cooling Degree Days 0 0  
Month to date cooling degree days 0 0  
Year to date cooling degree days 788 710  
Moisture
Dew Point 40°F   
Average Humidity 73    
Maximum Humidity 100    
Minimum Humidity 46    
Precipitation
Precipitation 0.19 in in 0.30 in (1980)
Month to date precipitation 0.20  
Year to date precipitation 8.76  
Snow
Snow 0.00 in in in ()
Snow Depth 0.00 in   
Wind
Wind Speed 11 mph   
Max Wind Speed 39 mph   
Max Gust Speed 48 mph   
Visibility 10 miles   
Events Rain   

Key: T is trace of precipitation, MM is missing value
Source: NWS Daily Summary
Time(PST)TemperatureDew PointHumidity Pressure Visibility Wind DirectionWind SpeedGust SpeedPrecipitationEvents Conditions
12:53 AM 46.9°F 45.0°F 93% 29.39 in 10.0 miles East 6.9 mph - 0.01 in Rain Light Rain
1:53 AM 46.9°F 45.0°F 93% 29.33 in 10.0 miles East 10.4 mph - 0.08 in Rain Rain
2:53 AM 46.9°F 46.0°F 97% 29.27 in 10.0 miles SSE 4.6 mph - 0.06 in Rain Light Rain
3:53 AM 46.0°F 45.0°F 96% 29.23 in 10.0 miles SSE 4.6 mph - 0.03 in Rain Light Rain
4:30 AM 46.4°F 46.4°F 100% 29.21 in 10.0 miles South 3.5 mph - 0.00 in   Overcast
4:53 AM 46.0°F 45.0°F 96% 29.21 in 10.0 miles SSE 4.6 mph - 0.01 in   Mostly Cloudy
5:06 AM 46.4°F 44.6°F 93% 29.21 in 10.0 miles Calm Calm - N/A   Mostly Cloudy
5:53 AM 46.0°F 45.0°F 96% 29.24 in 10.0 miles SW 4.6 mph - N/A   Mostly Cloudy
6:27 AM 48.2°F 46.4°F 93% 29.26 in 10.0 miles West 16.1 mph - N/A   Mostly Cloudy
6:53 AM 46.0°F 43.0°F 89% 29.28 in 10.0 miles WNW 11.5 mph - N/A   Mostly Cloudy
7:24 AM 44.6°F 42.8°F 93% 29.29 in 10.0 miles West 8.1 mph - N/A   Partly Cloudy
7:53 AM 46.9°F 42.1°F 83% 29.30 in 10.0 miles South 3.5 mph - N/A   Clear
8:29 AM 48.2°F 41.0°F 76% 29.32 in 10.0 miles WSW 15.0 mph 31.1 mph N/A   Clear
8:53 AM 48.9°F 39.9°F 71% 29.35 in 10.0 miles SW 19.6 mph 26.5 mph N/A   Clear
9:53 AM 51.1°F 39.9°F 66% 29.41 in 10.0 miles WSW 13.8 mph 24.2 mph N/A   Clear
10:53 AM 52.0°F 39.0°F 61% 29.47 in 10.0 miles SW 18.4 mph 29.9 mph N/A   Clear
11:53 AM 53.1°F 37.9°F 57% 29.51 in 10.0 miles SW 28.8 mph 39.1 mph N/A   Clear
12:53 PM 53.1°F 36.0°F 52% 29.55 in 10.0 miles SW 31.1 mph 46.0 mph N/A   Clear
1:53 PM 54.0°F 35.1°F 49% 29.60 in 10.0 miles SW 28.8 mph 35.7 mph N/A   Clear
2:53 PM 53.1°F 34.0°F 48% 29.65 in 10.0 miles SW 23.0 mph 35.7 mph N/A   Clear
3:53 PM 50.0°F 35.1°F 57% 29.70 in 10.0 miles SW 11.5 mph - N/A   Clear
4:53 PM 48.9°F 35.1°F 59% 29.74 in 10.0 miles SSW 10.4 mph - N/A   Partly Cloudy
5:53 PM 46.0°F 35.1°F 66% 29.76 in 10.0 miles SSW 12.7 mph - N/A   Clear
6:53 PM 46.9°F 35.1°F 63% 29.78 in 10.0 miles WSW 16.1 mph - N/A   Clear
7:53 PM 46.0°F 34.0°F 63% 29.80 in 10.0 miles SW 16.1 mph - N/A   Clear
8:53 PM 48.0°F 34.0°F 58% 29.82 in 10.0 miles SSW 15.0 mph - N/A   Clear
9:53 PM 48.9°F 34.0°F 56% 29.86 in 10.0 miles SSW 6.9 mph - N/A   Clear
10:53 PM 48.0°F 34.0°F 58% 29.88 in 10.0 miles South 11.5 mph - N/A   Clear
11:53 PM 50.0°F 34.0°F 54% 29.89 in 10.0 miles SSW 12.7 mph - N/A   Clear
Moon Phase
Dec. 02 Dec. 06 Dec. 13 Dec. 20 Dec. 28
Sunrise:07:20 AM (PST) Moon Rise:08:09 PM (PST)
Sunset:04:11 PM (PST) Moon Set:10:08 AM (PST)

Copyright © 2014 The Weather Underground, Inc.